Date String (YYYY-MM-DD hh:mm:ss) UTC,Instrument flags,Ambient pressure (hPa),Sample flow (lpm),Bypass flow (lpm),Sample temperature (°C),Ambient temperature (°C),ASC tube jacket temperature (°C),LED temperature (°C),Box temperature (°C),Sample RH (%),Span deviation,Mass concentration (μg/m³),Mass concentration (μg/m³),Mass concentration (μg/m³)
DateTimeUTC,F1_M11,P_M11,Q1_M11,Q2_M11,T1_M11,T2_M11,T3_M11,T4_M11,T5_M11,U1_M11,ZSPAN_M11,X0_M11,X2_M11,X1_M11
2023-02-05 21:00:00,,0819.8,5.03,0.00,25.0,23.9,00.0,33.8,27.0,13.3,0000.0,0011.54,0006.87,0006.21
2023-02-05 21:01:00,,0819.7,4.96,0.00,25.0,24.0,00.0,33.8,26.9,13.5,0000.0,0011.71,0006.91,0006.24
2023-02-05 21:02:00,,0819.8,5.01,0.00,25.1,24.0,00.0,33.8,27.0,13.5,0000.0,0011.75,0006.92,0006.24
2023-02-05 21:03:00,,0819.8,5.03,0.00,25.1,24.0,00.0,33.8,27.0,13.3,0000.0,0011.60,0006.88,0006.22
2023-02-05 21:04:00,,0819.8,4.97,0.00,25.1,24.0,00.0,33.8,27.0,13.4,0000.0,0011.56,0006.85,0006.23
2023-02-05 21:05:00,,0819.7,5.01,0.00,25.1,24.0,00.0,33.8,27.0,13.6,0000.0,0011.56,0006.84,0006.22
2023-02-05 21:06:00,,0819.7,5.04,0.00,25.1,24.1,00.0,33.8,27.0,13.3,0000.0,0011.58,0006.85,0006.23
2023-02-05 21:07:00,,0819.7,4.95,0.00,25.1,24.1,00.0,33.9,27.1,13.3,0000.0,0011.58,0006.87,0006.23
2023-02-05 21:08:00,,0819.7,5.02,0.00,25.1,24.1,00.0,33.9,27.1,13.2,0000.0,0011.28,0006.84,0006.22
2023-02-05 21:09:00,,0819.7,5.02,0.00,25.2,24.1,00.0,33.9,27.1,13.2,0000.0,0010.61,0006.85,0006.24
2023-02-05 21:10:00,,0819.7,4.94,0.00,25.2,24.1,00.0,33.9,27.1,13.2,0000.0,0010.73,0006.86,0006.25
2023-02-05 21:11:00,,0819.7,5.01,0.00,25.2,24.1,00.0,33.9,27.1,13.1,0000.0,0011.64,0006.90,0006.26
2023-02-05 21:12:00,,0819.6,5.03,0.00,25.2,24.1,00.0,33.9,27.1,13.0,0000.0,0012.14,0006.91,0006.27
2023-02-05 21:13:00,,0819.5,4.95,0.00,25.2,24.2,00.0,33.9,27.1,12.9,0000.0,0012.14,0006.90,0006.28
2023-02-05 21:14:00,,0819.5,5.00,0.00,25.2,24.2,00.0,34.0,27.1,12.8,0000.0,0012.10,0006.89,0006.30
2023-02-05 21:15:00,,0819.4,5.03,0.00,25.3,24.2,00.0,34.0,27.2,12.7,0000.0,0012.22,0006.89,0006.30
2023-02-05 21:16:00,,0819.5,4.97,0.00,25.3,24.2,00.0,34.0,27.2,12.9,0000.0,0012.46,0006.93,0006.34
2023-02-05 21:17:00,,0819.5,5.00,0.00,25.3,24.2,00.0,34.0,27.2,13.0,0000.0,0012.50,0006.93,0006.35
2023-02-05 21:18:00,,0819.5,5.05,0.00,25.3,24.3,00.0,34.0,27.2,13.1,0000.0,0012.55,0006.96,0006.37
2023-02-05 21:19:00,,0819.5,4.97,0.00,25.3,24.3,00.0,34.0,27.2,12.9,0000.0,0012.62,0007.01,0006.41
2023-02-05 21:20:00,,0819.5,4.99,0.00,25.3,24.3,00.0,34.0,27.3,13.0,0000.0,0012.59,0007.05,0006.43
2023-02-05 21:21:00,,0819.5,5.03,0.00,25.4,24.3,00.0,34.1,27.2,13.2,0000.0,0012.63,0007.07,0006.46
2023-02-05 21:22:00,,0819.5,4.97,0.00,25.4,24.3,00.0,34.1,27.3,13.2,0000.0,0012.16,0007.09,0006.49
2023-02-05 21:23:00,,0819.4,5.00,0.00,25.4,24.4,00.0,34.1,27.3,12.9,0000.0,0011.25,0007.12,0006.52
2023-02-05 21:24:00,,0819.4,5.03,0.00,25.4,24.4,00.0,34.1,27.3,12.9,0000.0,0011.26,0007.15,0006.54
2023-02-05 21:25:00,,0819.4,5.00,0.00,25.4,24.4,00.0,34.1,27.3,12.8,0000.0,0011.31,0007.17,0006.57
2023-02-05 21:26:00,,0819.4,4.97,0.00,25.5,24.4,00.0,34.2,27.3,12.8,0000.0,0011.30,0007.21,0006.60
2023-02-05 21:27:00,,0819.4,5.01,0.00,25.5,24.4,00.0,34.2,27.3,12.8,0000.0,0011.12,0007.25,0006.61
2023-02-05 21:28:00,,0819.4,5.02,0.00,25.5,24.5,00.0,34.2,27.4,13.1,0000.0,0011.20,0007.29,0006.63
2023-02-05 21:29:00,,0819.3,4.96,0.00,25.5,24.5,00.0,34.2,27.4,13.1,0000.0,0011.45,0007.34,0006.67
2023-02-05 21:30:00,,0819.3,5.00,0.00,25.6,24.5,00.0,34.2,27.4,13.0,0000.0,0011.97,0007.36,0006.69
2023-02-05 21:31:00,,0819.2,5.03,0.00,25.6,24.5,00.0,34.2,27.5,13.0,0000.0,0012.27,0007.37,0006.70
2023-02-05 21:32:00,,0819.3,4.96,0.00,25.6,24.5,00.0,34.3,27.5,13.3,0000.0,0012.04,0007.39,0006.72
2023-02-05 21:33:00,,0819.2,5.00,0.00,25.6,24.5,00.0,34.3,27.5,13.3,0000.0,0011.96,0007.38,0006.74
2023-02-05 21:34:00,,0819.3,5.02,0.00,25.6,24.6,00.0,34.3,27.5,13.1,0000.0,0012.06,0007.37,0006.75
2023-02-05 21:35:00,,0819.2,4.98,0.00,25.6,24.5,00.0,34.3,27.5,13.1,0000.0,0012.03,0007.39,0006.77
2023-02-05 21:36:00,,0819.3,4.98,0.00,25.6,24.5,00.0,34.3,27.6,13.0,0000.0,0011.99,0007.43,0006.79
2023-02-05 21:37:00,,0819.3,5.02,0.00,25.6,24.5,00.0,34.4,27.6,13.1,0000.0,0012.08,0007.52,0006.83
2023-02-05 21:38:00,,0819.3,5.02,0.00,25.6,24.5,00.0,34.4,27.6,12.8,0000.0,0012.11,0007.56,0006.90
2023-02-05 21:39:00,,0819.2,4.95,0.00,25.7,24.5,00.0,34.4,27.6,12.8,0000.0,0012.18,0007.62,0006.95
2023-02-05 21:40:00,,0819.1,5.03,0.00,25.7,24.6,00.0,34.4,27.6,13.0,0000.0,0012.27,0007.65,0007.01
2023-02-05 21:41:00,,0819.0,5.03,0.00,25.7,24.6,00.0,34.4,27.6,13.2,0000.0,0012.52,0007.72,0007.07
2023-02-05 21:42:00,,0819.0,4.95,0.00,25.7,24.6,00.0,34.4,27.6,13.3,0000.0,0012.47,0007.79,0007.14
2023-02-05 21:43:00,,0819.0,5.02,0.00,25.7,24.6,00.0,34.4,27.6,13.2,0000.0,0012.91,0007.84,0007.20
2023-02-05 21:44:00,,0819.0,5.03,0.00,25.7,24.6,00.0,34.4,27.6,13.0,0000.0,0013.02,0007.92,0007.24
2023-02-05 21:45:00,,0819.0,4.96,0.00,25.7,24.6,00.0,34.4,27.6,12.8,0000.0,0013.14,0008.02,0007.30
2023-02-05 21:46:00,,0819.0,5.00,0.00,25.7,24.6,00.0,34.5,27.6,12.9,0000.0,0013.38,0008.09,0007.36
2023-02-05 21:47:00,,0819.0,5.03,0.00,25.7,24.6,00.0,34.5,27.6,12.8,0000.0,0013.59,0008.16,0007.43
2023-02-05 21:48:00,,0819.0,4.99,0.00,25.7,24.6,00.0,34.5,27.6,12.7,0000.0,0013.55,0008.16,0007.48
2023-02-05 21:49:00,,0818.9,4.97,0.00,25.7,24.5,00.0,34.5,27.6,12.7,0000.0,0014.40,0008.15,0007.50
2023-02-05 21:50:00,,0819.0,5.01,0.00,25.7,24.5,00.0,34.5,27.6,12.8,0000.0,0014.57,0008.17,0007.52
2023-02-05 21:51:00,,0818.9,5.03,0.00,25.7,24.5,00.0,34.5,27.6,12.7,0000.0,0014.74,0008.23,0007.56
2023-02-05 21:52:00,,0819.0,4.96,0.00,25.7,24.5,00.0,34.5,27.6,12.8,0000.0,0014.15,0008.27,0007.58
2023-02-05 21:53:00,,0818.9,5.00,0.00,25.7,24.6,00.0,34.5,27.6,12.9,0000.0,0014.01,0008.25,0007.58
2023-02-05 21:54:00,,0818.9,5.03,0.00,25.8,24.6,00.0,34.5,27.6,12.6,0000.0,0013.69,0008.29,0007.61
2023-02-05 21:55:00,,0818.9,4.97,0.00,25.8,24.6,00.0,34.5,27.7,12.5,0000.0,0013.79,0008.36,0007.64
2023-02-05 21:56:00,,0819.0,4.99,0.00,25.8,24.7,00.0,34.5,27.7,12.4,0000.0,0014.35,0008.40,0007.68
2023-02-05 21:57:00,,0819.0,5.03,0.00,25.8,24.7,00.0,34.5,27.7,12.4,0000.0,0014.56,0008.44,0007.70
2023-02-05 21:58:00,,0818.9,4.96,0.00,25.8,24.7,00.0,34.6,27.7,12.3,0000.0,0014.47,0008.44,0007.73
2023-02-05 21:59:00,,0818.9,5.03,0.00,25.8,24.7,00.0,34.6,27.7,12.0,0000.0,0014.79,0008.48,0007.75
